M I D A S
Marine Information and Data Acquisition System
Tripno 1035 of the Zeeleeuw from 2006-02-23 09:23:43 to 2006-02-23 15:21:12
Back to CruiseResearch ActivitiesStationsMapUnderway DataData graphs

EquipmentUnitsComments
TimeDGPSUTC
LatitudeDGPSDM.mWGS84
LongitudeDGPSDM.mWGS84
SpeedMeteo Stationm/sRelative wind speed
DirectionMeteo StationdegRelative wind direction
TemperatureMeteo Stationdeg CelciusAir temperature
PressureMeteo StationPaAtmospheric pressure
HumidityMeteo Station%Relative humidity
Missing or incorrect values are displayed as -999
Metereological data collected by the RV Zeeleeuw from 2006-02-23 07:19:30 to 2006-02-23 15:32:57
Time Latitude Longitude Speed Direction Temperature Pressure Humidity
2006-02-23 07:20 51°13.598 2°56.094 -999 306 0.4 102430 83
2006-02-23 07:21 51°13.598 2°56.093 -999 302 0.4 102430 83
2006-02-23 07:22 51°13.598 2°56.094 -999 301 0.3 102430 83
2006-02-23 07:23 51°13.598 2°56.093 -999 296 0.3 102430 83
2006-02-23 07:24 51°13.598 2°56.094 -999 297 0.3 102420 83
2006-02-23 07:25 51°13.599 2°56.094 -999 306 0.3 102420 83
2006-02-23 07:26 51°13.599 2°56.095 -999 304 0.2 102420 84
2006-02-23 07:27 51°13.599 2°56.094 -999 306 0.2 102420 84
2006-02-23 07:28 51°13.599 2°56.094 -999 304 0.1 102420 84
2006-02-23 07:29 51°13.599 2°56.095 -999 316 -999 102420 84
2006-02-23 07:30 51°13.599 2°56.095 -999 310 -999 102430 84
2006-02-23 07:31 51°13.599 2°56.095 -999 281 -999 102430 85
2006-02-23 07:32 51°13.599 2°56.095 -999 228 -999 102420 85
2006-02-23 07:33 51°13.599 2°56.096 -999 307 -999 102420 85
2006-02-23 07:34 51°13.598 2°56.096 -999 298 -999 102420 85
2006-02-23 07:35 51°13.598 2°56.096 -999 331 -0.1 102420 85
2006-02-23 07:36 51°13.599 2°56.097 -999 310 -0.1 102420 86
2006-02-23 07:37 51°13.599 2°56.097 -999 305 -0.1 102420 86
2006-02-23 07:38 51°13.598 2°56.097 -999 227 -0.1 102420 86
2006-02-23 07:39 51°13.599 2°56.096 -999 302 -0.1 102420 86
2006-02-23 07:40 51°13.599 2°56.096 -999 296 -0.1 102420 86
2006-02-23 07:41 51°13.599 2°56.095 -999 312 -0.1 102420 86
2006-02-23 07:42 51°13.599 2°56.094 -999 291 -0.1 102430 86
2006-02-23 07:43 51°13.598 2°56.094 -999 308 -0.1 102430 86
2006-02-23 07:44 51°13.598 2°56.094 -999 290 -999 102420 86
2006-02-23 07:45 51°13.599 2°56.094 -999 301 -999 102430 86
2006-02-23 07:46 51°13.599 2°56.094 -999 312 -999 102430 87
2006-02-23 07:47 51°13.599 2°56.094 -999 285 -999 102420 87
2006-02-23 07:48 51°13.599 2°56.094 -999 294 -999 102420 87
2006-02-23 07:49 51°13.597 2°56.092 -999 305 -999 102420 87
2006-02-23 07:50 51°13.597 2°56.092 -999 304 -999 102420 87
2006-02-23 07:51 51°13.597 2°56.092 -999 235 -999 102420 86
2006-02-23 07:52 51°13.597 2°56.093 -999 283 -999 102420 86
2006-02-23 07:53 51°13.598 2°56.093 -999 315 -999 102420 86
2006-02-23 07:54 51°13.598 2°56.093 -999 325 -999 102420 86
2006-02-23 07:55 51°13.597 2°56.094 -999 300 -999 102420 86
2006-02-23 07:56 51°13.598 2°56.094 -999 301 -999 102420 86
2006-02-23 07:57 51°13.598 2°56.094 -999 313 -999 102410 86
2006-02-23 07:58 51°13.598 2°56.094 -999 307 -999 102420 86
2006-02-23 07:59 51°13.597 2°56.095 -999 316 -999 102420 86
2006-02-23 08:00 51°13.598 2°56.094 -999 316 -999 102410 86
2006-02-23 08:01 51°13.598 2°56.094 -999 39 -999 102410 86
2006-02-23 08:02 51°13.598 2°56.094 -999 309 -999 102410 86
2006-02-23 08:03 51°13.598 2°56.094 -999 277 -999 102410 86
2006-02-23 08:04 51°13.597 2°56.093 -999 309 -999 102410 86
2006-02-23 08:05 51°13.597 2°56.094 -999 298 -999 102410 86
2006-02-23 08:06 51°13.597 2°56.095 -999 300 -999 102400 86
2006-02-23 08:07 51°13.598 2°56.095 -999 320 0.1 102400 87
2006-02-23 08:08 51°13.598 2°56.095 -999 307 0.1 102400 87
2006-02-23 08:09 51°13.597 2°56.095 -999 304 -999 102400 87
2006-02-23 08:10 51°13.597 2°56.095 -999 296 -999 102400 87
2006-02-23 08:11 51°13.597 2°56.095 -999 303 -999 102400 87
2006-02-23 08:12 51°13.597 2°56.095 -999 314 0.1 102400 87
2006-02-23 08:13 51°13.597 2°56.095 -999 320 -999 102400 87
2006-02-23 08:14 51°13.598 2°56.095 -999 306 0.1 102410 87
2006-02-23 08:15 51°13.598 2°56.094 -999 309 0.1 102410 87
2006-02-23 08:16 51°13.598 2°56.094 -999 316 0.1 102420 87
2006-02-23 08:17 51°13.598 2°56.094 -999 312 -999 102420 87
2006-02-23 08:18 51°13.599 2°56.094 -999 303 -999 102420 87
2006-02-23 08:19 51°13.599 2°56.094 -999 43 -999 102420 87
2006-02-23 08:20 51°13.599 2°56.095 -999 304 -999 102420 87
2006-02-23 08:21 51°13.599 2°56.095 -999 292 -999 102420 88
2006-02-23 08:22 51°13.599 2°56.094 -999 307 0.1 102420 88
2006-02-23 08:23 51°13.599 2°56.094 -999 227 0.1 102420 88
2006-02-23 08:24 51°13.598 2°56.094 -999 307 0.2 102410 88
2006-02-23 08:25 51°13.597 2°56.094 -999 290 0.2 102410 88
2006-02-23 08:26 51°13.597 2°56.094 -999 296 0.2 102410 88
2006-02-23 08:27 51°13.597 2°56.094 -999 306 0.2 102410 88
2006-02-23 08:28 51°13.596 2°56.095 -999 301 0.2 102410 88
2006-02-23 08:29 51°13.597 2°56.096 -999 296 0.2 102410 88
2006-02-23 08:30 51°13.597 2°56.095 -999 287 0.1 102410 88
2006-02-23 08:31 51°13.598 2°56.094 -999 317 0.1 102410 88
2006-02-23 08:32 51°13.599 2°56.094 -999 314 0.1 102410 88
2006-02-23 08:33 51°13.599 2°56.094 -999 295 0.2 102410 88
2006-02-23 08:34 51°13.598 2°56.093 -999 301 0.1 102410 88
2006-02-23 08:35 51°13.597 2°56.093 -999 284 0.1 102410 88
2006-02-23 08:36 51°13.597 2°56.093 -999 290 0.1 102410 88
2006-02-23 08:37 51°13.597 2°56.094 -999 311 -999 102410 88
2006-02-23 08:38 51°13.597 2°56.094 -999 296 -999 102410 88
2006-02-23 08:39 51°13.598 2°56.094 -999 307 -999 102410 88
2006-02-23 08:40 51°13.598 2°56.094 -999 292 0.1 102410 89
2006-02-23 08:41 51°13.598 2°56.094 -999 320 0.1 102410 89
2006-02-23 08:42 51°13.597 2°56.094 -999 43 0.1 102410 89
2006-02-23 08:43 51°13.597 2°56.094 -999 288 0.1 102410 89
2006-02-23 08:44 51°13.598 2°56.094 -999 282 0.1 102400 89
2006-02-23 08:45 51°13.596 2°56.094 -999 293 0.1 102400 89
2006-02-23 08:46 51°13.598 2°56.094 -999 272 -999 102410 89
2006-02-23 08:47 51°13.599 2°56.094 -999 310 -999 102410 89
2006-02-23 08:48 51°13.599 2°56.094 -999 309 0.1 102410 89
2006-02-23 08:49 51°13.599 2°56.094 -999 294 0.1 102410 89
2006-02-23 08:50 51°13.6 2°56.093 -999 310 0.1 102410 90
2006-02-23 08:51 51°13.6 2°56.094 -999 325 0.1 102400 90
2006-02-23 08:52 51°13.598 2°56.093 -999 312 0.1 102400 90
2006-02-23 08:53 51°13.599 2°56.093 -999 289 0.1 102400 90
2006-02-23 08:54 51°13.599 2°56.093 -999 255 0.1 102400 90
2006-02-23 08:55 51°13.599 2°56.093 -999 316 0.1 102400 90
2006-02-23 08:56 51°13.6 2°56.094 -999 305 0.1 102400 90
2006-02-23 08:57 51°13.599 2°56.094 -999 -999 -999 -999 -999
2006-02-23 08:58 51°13.599 2°56.094 -999 227 0.1 102390 90
2006-02-23 08:59 51°13.599 2°56.094 -999 263 -999 102380 90
2006-02-23 09:00 51°13.599 2°56.094 -999 301 -999 102390 90
2006-02-23 09:01 51°13.599 2°56.094 -999 302 -999 102390 91
2006-02-23 09:02 51°13.599 2°56.094 -999 291 -999 102390 91
2006-02-23 09:03 51°13.599 2°56.094 -999 294 -999 102390 91
2006-02-23 09:04 51°13.599 2°56.094 -999 282 -0.1 102390 91
2006-02-23 09:05 51°13.598 2°56.094 -999 300 -0.1 102390 91
2006-02-23 09:06 51°13.598 2°56.094 -999 292 -0.1 102380 91
2006-02-23 09:07 51°13.598 2°56.094 -999 282 -0.1 102380 91
2006-02-23 09:08 51°13.598 2°56.094 -999 302 -0.1 102380 91
2006-02-23 09:09 51°13.598 2°56.094 -999 292 -0.2 102390 91
2006-02-23 09:10 51°13.599 2°56.094 -999 305 -0.1 102380 91
2006-02-23 09:11 51°13.599 2°56.094 -999 293 -0.1 102390 92
2006-02-23 09:12 51°13.603 2°56.074 -999 338 -0.1 102380 92
2006-02-23 09:13 51°13.626 2°55.994 -999 254 -0.1 102390 92
2006-02-23 09:14 51°13.653 2°55.9 -999 286 -0.1 102390 92
2006-02-23 09:15 51°13.693 2°55.802 -999 233 -0.2 102390 92
2006-02-23 09:16 51°13.721 2°55.72 -999 283 -0.2 102390 92
2006-02-23 09:17 51°13.723 2°55.726 -999 41 -0.1 102390 93
2006-02-23 09:18 51°13.722 2°55.703 -999 37 -999 102380 93
2006-02-23 09:19 51°13.773 2°55.675 -999 52 -0.1 102390 92
2006-02-23 09:20 51°13.859 2°55.614 -999 31 -0.1 102380 93
2006-02-23 09:21 51°13.992 2°55.516 -999 33 -0.2 102380 93
2006-02-23 09:22 51°14.121 2°55.415 -999 49 -0.3 102380 94
2006-02-23 09:23 51°14.239 2°55.288 -999 58 -0.4 102380 94
2006-02-23 09:24 51°14.354 2°55.071 -999 41 -0.4 102380 95
2006-02-23 09:25 51°14.514 2°54.878 -999 59 -0.4 102360 96
2006-02-23 09:26 51°14.706 2°54.72 -999 60 -0.3 102350 96
2006-02-23 09:27 51°14.893 2°54.551 -999 57 -0.4 102340 96
2006-02-23 09:28 51°15.067 2°54.353 -999 65 -0.3 102340 97
2006-02-23 09:29 51°15.231 2°54.127 -999 66 -0.4 102350 97
2006-02-23 09:30 51°15.398 2°53.903 -999 70 -0.3 102350 98
2006-02-23 09:31 51°15.565 2°53.679 -999 74 -0.3 102340 98
2006-02-23 09:32 51°15.732 2°53.454 -999 62 -0.3 102360 98
2006-02-23 09:33 51°15.905 2°53.235 -999 58 -0.3 102350 98
2006-02-23 09:34 51°16.082 2°53.028 -999 62 -0.3 102350 98
2006-02-23 09:35 51°16.261 2°52.828 -999 56 -0.3 102350 99
2006-02-23 09:36 51°16.446 2°52.638 -999 54 -0.3 102340 99
2006-02-23 09:37 51°16.629 2°52.448 -999 53 -0.3 102340 99
2006-02-23 09:38 51°16.814 2°52.263 -999 61 -0.3 102340 99
2006-02-23 09:39 51°17 2°52.075 -999 61 -0.3 102340 99
2006-02-23 09:40 51°17.187 2°51.887 -999 69 -0.4 102340 99
2006-02-23 09:41 51°17.373 2°51.695 -999 62 -0.3 102340 99
2006-02-23 09:42 51°17.558 2°51.504 -999 75 -0.4 102340 99
2006-02-23 09:43 51°17.685 2°51.232 -999 70 -0.3 102350 99
2006-02-23 09:44 51°17.754 2°50.907 -999 81 -0.3 102350 100
2006-02-23 09:45 51°17.826 2°50.582 -999 81 -0.3 102360 100
2006-02-23 09:46 51°17.899 2°50.258 -999 82 -0.2 102350 100
2006-02-23 09:47 51°17.97 2°49.933 -999 86 -0.2 102360 100
2006-02-23 09:48 51°18.048 2°49.609 -999 92 -0.3 102360 100
2006-02-23 09:49 51°18.124 2°49.284 -999 86 -0.3 102370 100
2006-02-23 09:50 51°18.203 2°48.963 -999 96 -0.4 102360 100
2006-02-23 09:51 51°18.281 2°48.639 -999 85 -0.4 102360 100
2006-02-23 09:52 51°18.366 2°48.319 -999 79 -0.4 102360 100
2006-02-23 09:53 51°18.45 2°47.998 -999 81 -0.3 102360 100
2006-02-23 09:54 51°18.537 2°47.676 -999 100 -0.3 102360 100
2006-02-23 09:55 51°18.624 2°47.357 -999 97 -0.3 102360 100
2006-02-23 09:56 51°18.71 2°47.036 -999 85 -0.3 102350 100
2006-02-23 09:57 51°18.794 2°46.714 -999 91 -0.3 102350 100
2006-02-23 09:58 51°18.888 2°46.396 -999 97 -0.3 102350 100
2006-02-23 09:59 51°18.981 2°46.076 -999 88 -0.3 102350 100
2006-02-23 10:00 51°19.077 2°45.758 -999 89 -0.3 102360 100
2006-02-23 10:01 51°19.173 2°45.44 -999 89 -0.3 102340 100
2006-02-23 10:02 51°19.27 2°45.124 -999 96 -0.3 102340 100
2006-02-23 10:03 51°19.363 2°44.804 -999 94 -0.3 102360 100
2006-02-23 10:04 51°19.454 2°44.479 -999 79 -0.3 102350 100
2006-02-23 10:05 51°19.542 2°44.154 -999 84 -0.2 102340 100
2006-02-23 10:06 51°19.63 2°43.832 -999 79 -0.2 102340 100
2006-02-23 10:07 51°19.718 2°43.511 -999 83 -0.2 102310 100
2006-02-23 10:08 51°19.807 2°43.193 -999 94 -0.2 102310 100
2006-02-23 10:09 51°19.9 2°42.875 -999 103 -0.2 102310 100
2006-02-23 10:10 51°19.992 2°42.554 -999 96 -0.2 102310 100
2006-02-23 10:11 51°20.085 2°42.233 -999 87 -0.2 102310 100
2006-02-23 10:12 51°20.178 2°41.911 -999 88 -0.2 102300 100
2006-02-23 10:13 51°20.254 2°41.577 -999 92 -0.2 102290 100
2006-02-23 10:14 51°20.299 2°41.228 -999 101 -0.2 102300 100
2006-02-23 10:15 51°20.336 2°40.883 -999 110 -0.2 102300 100
2006-02-23 10:16 51°20.364 2°40.541 -999 119 -0.2 102300 100
2006-02-23 10:17 51°20.391 2°40.199 -999 123 -0.2 102300 100
2006-02-23 10:18 51°20.421 2°39.857 -999 148 -0.2 102300 100
2006-02-23 10:19 51°20.454 2°39.516 -999 74 -0.2 102310 100
2006-02-23 10:20 51°20.49 2°39.173 -999 121 -0.2 102300 100
2006-02-23 10:21 51°20.523 2°38.832 -999 115 -0.3 102300 100
2006-02-23 10:22 51°20.557 2°38.492 -999 65 -0.3 102310 100
2006-02-23 10:23 51°20.593 2°38.15 -999 103 -0.2 102300 100
2006-02-23 10:24 51°20.63 2°37.806 -999 94 -0.2 102310 100
2006-02-23 10:25 51°20.667 2°37.458 -999 130 -0.2 102300 100
2006-02-23 10:26 51°20.7 2°37.113 -999 115 -0.2 102340 100
2006-02-23 10:27 51°20.732 2°36.774 -999 150 -0.2 102340 100
2006-02-23 10:28 51°20.768 2°36.436 -999 120 -0.3 102340 100
2006-02-23 10:29 51°20.803 2°36.098 -999 136 -0.2 102300 100
2006-02-23 10:30 51°20.833 2°35.756 -999 147 -0.2 102310 100
2006-02-23 10:31 51°20.866 2°35.413 -999 118 -0.2 102300 100
2006-02-23 10:32 51°20.901 2°35.069 -999 160 -0.2 102310 100
2006-02-23 10:33 51°20.995 2°34.758 -999 82 -0.2 102300 100
2006-02-23 10:34 51°21.154 2°34.507 -999 93 -0.2 102300 100
2006-02-23 10:35 51°21.308 2°34.252 -999 84 -0.2 102300 100
2006-02-23 10:36 51°21.46 2°33.997 -999 95 -0.2 102300 100
2006-02-23 10:37 51°21.612 2°33.742 -999 81 -0.1 102290 100
2006-02-23 10:38 51°21.764 2°33.486 -999 87 -0.1 102300 100
2006-02-23 10:39 51°21.914 2°33.228 -999 93 -0.1 102300 100
2006-02-23 10:40 51°22.068 2°32.968 -999 78 -0.1 102300 100
2006-02-23 10:41 51°22.218 2°32.706 -999 83 -0.1 102300 100
2006-02-23 10:42 51°22.373 2°32.446 -999 91 -0.1 102290 100
2006-02-23 10:43 51°22.524 2°32.178 -999 88 -0.1 102290 100
2006-02-23 10:44 51°22.602 2°31.855 -999 71 -0.1 102300 100
2006-02-23 10:45 51°22.587 2°31.52 -999 267 -999 102290 100
2006-02-23 10:46 51°22.574 2°31.183 -999 258 -0.1 102300 100
2006-02-23 10:47 51°22.566 2°30.844 -999 259 -0.1 102300 100
2006-02-23 10:48 51°22.561 2°30.502 -999 266 -0.1 102300 100
2006-02-23 10:49 51°22.556 2°30.159 -999 272 -0.1 102300 100
2006-02-23 10:50 51°22.549 2°29.818 -999 249 -0.1 102330 100
2006-02-23 10:51 51°22.546 2°29.474 -999 273 -0.1 102290 100
2006-02-23 10:52 51°22.542 2°29.132 -999 303 -999 102290 100
2006-02-23 10:53 51°22.54 2°28.791 -999 282 -999 102310 100
2006-02-23 10:54 51°22.541 2°28.449 -999 281 -999 102300 100
2006-02-23 10:55 51°22.538 2°28.103 -999 295 -999 102290 100
2006-02-23 10:56 51°22.536 2°27.758 -999 296 -0.1 102320 100
2006-02-23 10:57 51°22.534 2°27.413 -999 281 -0.1 102290 100
2006-02-23 10:58 51°22.533 2°27.066 -999 286 -0.1 102300 100
2006-02-23 10:59 51°22.533 2°26.719 -999 291 -0.1 102290 100
2006-02-23 11:00 51°22.533 2°26.373 -999 307 -0.1 102290 100
2006-02-23 11:01 51°22.533 2°26.026 -999 313 -0.1 102300 100
2006-02-23 11:02 51°22.536 2°25.679 -999 310 -999 102290 100
2006-02-23 11:03 51°22.629 2°25.365 -999 71 -999 102290 100
2006-02-23 11:04 51°22.815 2°25.179 -999 72 -999 102280 100
2006-02-23 11:05 51°23.034 2°25.114 -999 60 -999 102270 100
2006-02-23 11:06 51°23.259 2°25.136 -999 64 -999 102260 100
2006-02-23 11:07 51°23.482 2°25.102 -999 69 -999 102270 100
2006-02-23 11:08 51°23.703 2°25.061 -999 68 -0.1 102260 100
2006-02-23 11:09 51°23.923 2°25.022 -999 73 -0.2 102270 100
2006-02-23 11:10 51°24.143 2°24.987 -999 63 -0.1 102270 100
2006-02-23 11:11 51°24.363 2°24.977 -999 56 -0.1 102270 100
2006-02-23 11:12 51°24.582 2°25.004 -999 55 -0.1 102270 100
2006-02-23 11:13 51°24.801 2°25.04 -999 59 -999 102260 100
2006-02-23 11:14 51°25.021 2°25.074 -999 60 -0.1 102270 100
2006-02-23 11:15 51°25.243 2°25.105 -999 67 -999 102290 100
2006-02-23 11:16 51°25.467 2°25.141 -999 69 -999 102300 100
2006-02-23 11:17 51°25.691 2°25.17 -999 57 -999 102260 100
2006-02-23 11:18 51°25.914 2°25.206 -999 63 -999 102260 100
2006-02-23 11:19 51°26.138 2°25.25 -999 55 -999 102260 100
2006-02-23 11:20 51°26.353 2°25.364 -999 53 -999 102250 100
2006-02-23 11:21 51°26.564 2°25.485 -999 56 0.1 102240 100
2006-02-23 11:22 51°26.776 2°25.601 -999 56 -999 102250 100
2006-02-23 11:23 51°26.987 2°25.71 -999 52 -999 102240 100
2006-02-23 11:24 51°27.198 2°25.823 -999 50 0.1 102240 100
2006-02-23 11:25 51°27.408 2°25.934 -999 46 -999 102240 100
2006-02-23 11:26 51°27.618 2°26.042 -999 58 -999 102240 100
2006-02-23 11:27 51°27.83 2°26.151 -999 56 -999 102240 100
2006-02-23 11:28 51°28.04 2°26.257 -999 47 -999 102240 100
2006-02-23 11:29 51°28.25 2°26.372 -999 48 0.1 102240 100
2006-02-23 11:30 51°28.448 2°26.526 -999 49 -999 102240 100
2006-02-23 11:31 51°28.633 2°26.695 -999 42 -999 102230 100
2006-02-23 11:32 51°28.691 2°26.825 -999 35 -999 102280 100
2006-02-23 11:33 51°28.704 2°26.842 -999 40 0.1 102280 100
2006-02-23 11:34 51°28.715 2°26.842 -999 43 0.1 102290 100
2006-02-23 11:35 51°28.725 2°26.837 -999 57 -999 102290 100
2006-02-23 11:36 51°28.733 2°26.825 -999 74 -0.1 102280 100
2006-02-23 11:37 51°28.739 2°26.812 -999 79 -999 102290 100
2006-02-23 11:38 51°28.744 2°26.799 -999 106 0.1 102280 100
2006-02-23 11:39 51°28.748 2°26.787 -999 108 -999 102280 100
2006-02-23 11:40 51°28.752 2°26.774 -999 106 0.1 102280 100
2006-02-23 11:41 51°28.755 2°26.762 -999 123 -0.1 102270 100
2006-02-23 11:42 51°28.76 2°26.75 -999 128 0.1 102270 100
2006-02-23 11:43 51°28.764 2°26.738 -999 135 -999 102270 100
2006-02-23 11:44 51°28.769 2°26.726 -999 125 -999 102270 100
2006-02-23 11:45 51°28.774 2°26.714 -999 135 -0.1 102260 100
2006-02-23 11:46 51°28.779 2°26.701 -999 140 -999 102270 100
2006-02-23 11:47 51°28.785 2°26.688 -999 132 -999 102270 100
2006-02-23 11:48 51°28.792 2°26.674 -999 130 -999 102260 100
2006-02-23 11:49 51°28.799 2°26.659 -999 130 -0.1 102260 100
2006-02-23 11:50 51°28.806 2°26.646 -999 137 -0.1 102260 100
2006-02-23 11:51 51°28.813 2°26.633 -999 132 -0.1 102250 100
2006-02-23 11:52 51°28.817 2°26.62 -999 121 -999 102260 100
2006-02-23 11:53 51°28.822 2°26.607 -999 125 -999 102250 100
2006-02-23 11:54 51°28.825 2°26.592 -999 136 -999 102250 100
2006-02-23 11:55 51°28.828 2°26.577 -999 137 -0.1 102250 100
2006-02-23 11:56 51°28.83 2°26.563 -999 133 -0.1 102250 100
2006-02-23 11:57 51°28.833 2°26.551 -999 143 -999 102250 100
2006-02-23 11:58 51°28.836 2°26.538 -999 137 -999 102250 100
2006-02-23 11:59 51°28.838 2°26.524 -999 144 -999 102250 100
2006-02-23 12:00 51°28.847 2°26.504 -999 145 0.1 102250 100
2006-02-23 12:01 51°28.92 2°26.476 -999 71 0.1 102230 100
2006-02-23 12:02 51°29.067 2°26.446 -999 68 -999 102230 100
2006-02-23 12:03 51°29.236 2°26.5 -999 36 -999 102210 100
2006-02-23 12:04 51°29.376 2°26.701 -999 35 -999 102200 100
2006-02-23 12:05 51°29.517 2°26.95 -999 29 -999 102200 100
2006-02-23 12:06 51°29.686 2°27.15 -999 44 0.1 102200 100
2006-02-23 12:07 51°29.895 2°27.224 -999 44 -999 102200 100
2006-02-23 12:08 51°30.108 2°27.282 -999 42 -999 102190 100
2006-02-23 12:09 51°30.322 2°27.341 -999 43 -0.1 102200 100
2006-02-23 12:10 51°30.534 2°27.405 -999 42 -0.1 102190 100
2006-02-23 12:11 51°30.745 2°27.477 -999 40 -999 102200 100
2006-02-23 12:12 51°30.949 2°27.588 -999 36 -999 102190 100
2006-02-23 12:13 51°31.147 2°27.723 -999 38 -999 102200 100
2006-02-23 12:14 51°31.347 2°27.856 -999 39 -999 102200 100
2006-02-23 12:15 51°31.544 2°27.997 -999 37 0.1 102190 100
2006-02-23 12:16 51°31.74 2°28.15 -999 40 0.1 102190 100
2006-02-23 12:17 51°31.934 2°28.316 -999 40 0.1 102190 100
2006-02-23 12:18 51°32.121 2°28.476 -999 45 0.2 102190 100
2006-02-23 12:19 51°32.313 2°28.637 -999 40 0.2 102190 100
2006-02-23 12:20 51°32.504 2°28.797 -999 35 0.2 102190 100
2006-02-23 12:21 51°32.697 2°28.957 -999 35 0.2 102180 100
2006-02-23 12:22 51°32.89 2°29.12 -999 39 0.2 102190 100
2006-02-23 12:23 51°33.083 2°29.279 -999 29 0.3 102190 100
2006-02-23 12:24 51°33.274 2°29.445 -999 33 0.3 102180 100
2006-02-23 12:25 51°33.464 2°29.61 -999 42 0.3 102190 100
2006-02-23 12:26 51°33.656 2°29.775 -999 41 0.3 102180 100
2006-02-23 12:27 51°33.847 2°29.942 -999 37 0.2 102190 100
2006-02-23 12:28 51°34.037 2°30.11 -999 43 0.2 102180 100
2006-02-23 12:29 51°34.225 2°30.282 -999 41 0.3 102180 100
2006-02-23 12:30 51°34.412 2°30.457 -999 43 0.2 102180 100
2006-02-23 12:31 51°34.6 2°30.632 -999 47 0.2 102170 100
2006-02-23 12:32 51°34.79 2°30.803 -999 42 0.2 102170 100
2006-02-23 12:33 51°34.977 2°30.987 -999 34 0.3 102180 100
2006-02-23 12:34 51°35.163 2°31.172 -999 37 0.3 102180 100
2006-02-23 12:35 51°35.347 2°31.361 -999 37 0.4 102190 100
2006-02-23 12:36 51°35.531 2°31.546 -999 40 0.3 102180 100
2006-02-23 12:37 51°35.715 2°31.733 -999 33 0.3 102180 100
2006-02-23 12:38 51°35.9 2°31.92 -999 37 0.3 102180 99
2006-02-23 12:39 51°36.086 2°32.107 -999 38 0.3 102170 99
2006-02-23 12:40 51°36.267 2°32.306 -999 38 0.3 102160 99
2006-02-23 12:41 51°36.447 2°32.504 -999 35 0.4 102170 99
2006-02-23 12:42 51°36.626 2°32.7 -999 40 0.3 102160 98
2006-02-23 12:43 51°36.805 2°32.896 -999 33 0.3 102170 98
2006-02-23 12:44 51°36.983 2°33.092 -999 36 0.3 102160 98
2006-02-23 12:45 51°37.143 2°33.321 -999 24 0.3 102160 97
2006-02-23 12:46 51°37.227 2°33.63 -999 19 0.3 102170 96
2006-02-23 12:47 51°37.256 2°33.968 -999 14 0.4 102170 96
2006-02-23 12:48 51°37.277 2°34.307 -999 16 0.4 102160 96
2006-02-23 12:49 51°37.201 2°34.608 -999 354 0.5 102170 95
2006-02-23 12:50 51°37.036 2°34.803 -999 345 0.5 102160 95
2006-02-23 12:51 51°36.827 2°34.856 -999 345 0.5 102180 94
2006-02-23 12:52 51°36.621 2°34.943 -999 350 0.6 102170 94
2006-02-23 12:53 51°36.419 2°35.052 -999 339 0.6 102170 94
2006-02-23 12:54 51°36.218 2°35.153 -999 347 0.6 102170 93
2006-02-23 12:55 51°36.015 2°35.253 -999 342 0.6 102170 93
2006-02-23 12:56 51°35.811 2°35.367 -999 347 0.6 102160 93
2006-02-23 12:57 51°35.614 2°35.483 -999 341 0.6 102160 92
2006-02-23 12:58 51°35.411 2°35.599 -999 344 0.6 102160 92
2006-02-23 12:59 51°35.211 2°35.721 -999 345 0.6 102160 92
2006-02-23 13:00 51°35.008 2°35.828 -999 354 0.6 102160 92
2006-02-23 13:01 51°34.806 2°35.936 -999 344 0.6 102160 92
2006-02-23 13:02 51°34.592 2°35.932 -999 352 0.6 102160 92
2006-02-23 13:03 51°34.378 2°35.919 -999 348 0.6 102160 92
2006-02-23 13:04 51°34.162 2°35.924 -999 349 0.7 102160 93
2006-02-23 13:05 51°33.948 2°35.928 -999 346 0.6 102150 93
2006-02-23 13:06 51°33.734 2°35.935 -999 339 0.6 102150 93
2006-02-23 13:07 51°33.523 2°35.889 -999 340 0.6 102150 93
2006-02-23 13:08 51°33.307 2°35.823 -999 340 0.6 102150 93
2006-02-23 13:09 51°33.102 2°35.741 -999 339 0.5 102140 93
2006-02-23 13:10 51°32.89 2°35.676 -999 346 0.5 102140 93
2006-02-23 13:11 51°32.671 2°35.654 -999 334 0.5 102140 92
2006-02-23 13:12 51°32.455 2°35.671 -999 341 0.4 102140 92
2006-02-23 13:13 51°32.24 2°35.691 -999 342 0.4 102140 92
2006-02-23 13:14 51°32.033 2°35.736 -999 345 0.5 102140 92
2006-02-23 13:15 51°31.825 2°35.772 -999 344 0.5 102130 91
2006-02-23 13:16 51°31.617 2°35.808 -999 339 0.4 102140 91
2006-02-23 13:17 51°31.409 2°35.9 -999 339 0.5 102140 91
2006-02-23 13:18 51°31.21 2°36.004 -999 338 0.5 102130 91
2006-02-23 13:19 51°31.012 2°36.126 -999 337 0.4 102130 90
2006-02-23 13:20 51°30.813 2°36.25 -999 345 0.4 102130 89
2006-02-23 13:21 51°30.614 2°36.386 -999 343 0.4 102140 89
2006-02-23 13:22 51°30.425 2°36.548 -999 338 0.4 102130 88
2006-02-23 13:23 51°30.24 2°36.717 -999 332 0.4 102130 87
2006-02-23 13:24 51°30.059 2°36.896 -999 343 0.5 102130 87
2006-02-23 13:25 51°29.875 2°37.065 -999 348 0.5 102120 86
2006-02-23 13:26 51°29.688 2°37.232 -999 345 0.6 102140 86
2006-02-23 13:27 51°29.503 2°37.399 -999 353 0.6 102120 86
2006-02-23 13:28 51°29.315 2°37.565 -999 342 0.6 102130 86
2006-02-23 13:29 51°29.126 2°37.73 -999 342 0.7 102120 85
2006-02-23 13:30 51°28.939 2°37.897 -999 353 0.6 102130 85
2006-02-23 13:31 51°28.749 2°38.067 -999 348 0.6 102120 84
2006-02-23 13:32 51°28.558 2°38.232 -999 340 0.7 102120 84
2006-02-23 13:33 51°28.369 2°38.405 -999 345 0.7 102120 83
2006-02-23 13:34 51°28.183 2°38.585 -999 339 0.7 102100 83
2006-02-23 13:35 51°27.997 2°38.764 -999 347 0.7 102110 82
2006-02-23 13:36 51°27.81 2°38.937 -999 343 0.8 102110 82
2006-02-23 13:37 51°27.627 2°39.121 -999 341 0.7 102110 82
2006-02-23 13:38 51°27.439 2°39.297 -999 347 0.7 102100 82
2006-02-23 13:39 51°27.252 2°39.471 -999 347 0.7 102100 81
2006-02-23 13:40 51°27.065 2°39.645 -999 342 0.7 102100 81
2006-02-23 13:41 51°26.877 2°39.815 -999 343 0.7 102100 81
2006-02-23 13:42 51°26.688 2°39.99 -999 349 0.7 102120 80
2006-02-23 13:43 51°26.499 2°40.161 -999 341 0.7 102120 80
2006-02-23 13:44 51°26.311 2°40.332 -999 346 0.8 102130 80
2006-02-23 13:45 51°26.124 2°40.502 -999 341 0.8 102120 79
2006-02-23 13:46 51°25.937 2°40.672 -999 343 0.8 102110 79
2006-02-23 13:47 51°25.751 2°40.843 -999 340 0.8 102110 79
2006-02-23 13:48 51°25.565 2°41.018 -999 352 0.8 102110 78
2006-02-23 13:49 51°25.374 2°41.185 -999 342 0.8 102110 78
2006-02-23 13:50 51°25.187 2°41.354 -999 344 0.8 102110 78
2006-02-23 13:51 51°24.999 2°41.521 -999 351 0.8 102110 78
2006-02-23 13:52 51°24.813 2°41.691 -999 342 0.9 102110 78
2006-02-23 13:53 51°24.625 2°41.853 -999 338 0.9 102100 78
2006-02-23 13:54 51°24.439 2°42.019 -999 342 0.9 102110 78
2006-02-23 13:55 51°24.252 2°42.182 -999 337 0.9 102110 77
2006-02-23 13:56 51°24.064 2°42.344 -999 342 0.8 102100 76
2006-02-23 13:57 51°23.879 2°42.51 -999 335 0.8 102100 76
2006-02-23 13:58 51°23.694 2°42.671 -999 340 0.9 102100 75
2006-02-23 13:59 51°23.505 2°42.83 -999 339 0.9 102100 75
2006-02-23 14:00 51°23.316 2°42.991 -999 339 0.9 102110 75
2006-02-23 14:01 51°23.126 2°43.154 -999 339 0.9 102090 75
2006-02-23 14:02 51°22.938 2°43.316 -999 334 0.9 102100 75
2006-02-23 14:03 51°22.748 2°43.477 -999 346 1 102100 75
2006-02-23 14:04 51°22.558 2°43.639 -999 344 1 102110 75
2006-02-23 14:05 51°22.366 2°43.8 -999 341 1 102090 75
2006-02-23 14:06 51°22.175 2°43.96 -999 343 1.1 102100 74
2006-02-23 14:07 51°21.986 2°44.12 -999 341 1.1 102100 75
2006-02-23 14:08 51°21.798 2°44.283 -999 342 1.1 102090 75
2006-02-23 14:09 51°21.607 2°44.444 -999 344 1.1 102090 75
2006-02-23 14:10 51°21.421 2°44.61 -999 348 1.1 102090 76
2006-02-23 14:11 51°21.234 2°44.774 -999 346 1.1 102100 76
2006-02-23 14:12 51°21.056 2°44.96 -999 339 1.1 102090 76
2006-02-23 14:13 51°20.886 2°45.159 -999 343 1.1 102090 76
2006-02-23 14:14 51°20.741 2°45.395 -999 346 1.1 102100 75
2006-02-23 14:15 51°20.614 2°45.655 -999 350 1.2 102080 76
2006-02-23 14:16 51°20.484 2°45.912 -999 352 1.1 102090 75
2006-02-23 14:17 51°20.355 2°46.166 -999 347 1.1 102080 75
2006-02-23 14:18 51°20.224 2°46.419 -999 346 1.1 102090 75
2006-02-23 14:19 51°20.094 2°46.67 -999 350 1.2 102090 75
2006-02-23 14:20 51°19.962 2°46.926 -999 352 1.2 102080 76
2006-02-23 14:21 51°19.832 2°47.183 -999 348 1.2 102090 75
2006-02-23 14:22 51°19.701 2°47.441 -999 350 1.3 102080 76
2006-02-23 14:23 51°19.568 2°47.697 -999 347 1.3 102080 76
2006-02-23 14:24 51°19.435 2°47.953 -999 345 1.3 102070 75
2006-02-23 14:25 51°19.3 2°48.207 -999 352 1.3 102070 76
2006-02-23 14:26 51°19.167 2°48.46 -999 343 1.3 102070 75
2006-02-23 14:27 51°19.038 2°48.716 -999 345 1.3 102060 75
2006-02-23 14:28 51°18.908 2°48.97 -999 346 1.3 102060 76
2006-02-23 14:29 51°18.778 2°49.223 -999 346 1.3 102050 76
2006-02-23 14:30 51°18.651 2°49.479 -999 338 1.3 102060 76
2006-02-23 14:31 51°18.521 2°49.736 -999 340 1.3 102050 76
2006-02-23 14:32 51°18.393 2°49.994 -999 344 1.3 102050 76
2006-02-23 14:33 51°18.27 2°50.261 -999 336 1.3 102050 76
2006-02-23 14:34 51°18.135 2°50.515 -999 340 1.3 102040 76
2006-02-23 14:35 51°18.002 2°50.772 -999 335 1.4 102050 76
2006-02-23 14:36 51°17.868 2°51.027 -999 340 1.4 102050 76
2006-02-23 14:37 51°17.734 2°51.282 -999 341 1.4 102050 75
2006-02-23 14:38 51°17.604 2°51.542 -999 334 1.3 102050 75
2006-02-23 14:39 51°17.471 2°51.802 -999 337 1.3 102040 75
2006-02-23 14:40 51°17.335 2°52.059 -999 344 1.3 102040 75
2006-02-23 14:41 51°17.2 2°52.313 -999 341 1.4 102040 75
2006-02-23 14:42 51°17.082 2°52.583 -999 343 1.4 102040 75
2006-02-23 14:43 51°16.999 2°52.882 -999 355 1.4 102040 75
2006-02-23 14:44 51°16.975 2°53.186 -999 354 1.4 102040 74
2006-02-23 14:45 51°16.946 2°53.47 -999 333 1.5 102030 74
2006-02-23 14:46 51°16.888 2°53.562 -999 304 1.5 102040 73
2006-02-23 14:47 51°16.868 2°53.56 -999 309 1.5 102040 73
2006-02-23 14:48 51°16.85 2°53.553 -999 318 1.5 102040 73
2006-02-23 14:49 51°16.832 2°53.543 -999 332 1.6 102040 73
2006-02-23 14:50 51°16.815 2°53.531 -999 333 1.5 102040 71
2006-02-23 14:51 51°16.798 2°53.517 -999 319 1.5 102040 70
2006-02-23 14:52 51°16.781 2°53.504 -999 337 1.4 102030 70
2006-02-23 14:53 51°16.765 2°53.492 -999 346 1.5 102030 69
2006-02-23 14:54 51°16.749 2°53.478 -999 334 1.5 102030 68
2006-02-23 14:55 51°16.733 2°53.464 -999 346 1.5 102030 69
2006-02-23 14:56 51°16.717 2°53.447 -999 333 1.6 102020 69
2006-02-23 14:57 51°16.701 2°53.427 -999 338 1.6 102030 68
2006-02-23 14:58 51°16.686 2°53.405 -999 335 1.6 102030 68
2006-02-23 14:59 51°16.671 2°53.381 -999 346 1.6 102030 68
2006-02-23 15:00 51°16.656 2°53.356 -999 346 1.6 102030 68
2006-02-23 15:01 51°16.642 2°53.331 -999 335 1.6 102030 67
2006-02-23 15:02 51°16.628 2°53.304 -999 317 1.6 102020 67
2006-02-23 15:03 51°16.614 2°53.277 -999 333 1.6 102030 68
2006-02-23 15:04 51°16.599 2°53.25 -999 310 1.7 102020 67
2006-02-23 15:05 51°16.584 2°53.222 -999 305 1.7 102020 67
2006-02-23 15:06 51°16.565 2°53.197 -999 312 1.7 102020 67
2006-02-23 15:07 51°16.459 2°53.233 -999 321 1.7 101990 66
2006-02-23 15:08 51°16.276 2°53.315 -999 335 1.7 101980 67
2006-02-23 15:09 51°16.07 2°53.414 -999 339 1.6 101970 66
2006-02-23 15:10 51°15.868 2°53.533 -999 340 1.6 101970 66
2006-02-23 15:11 51°15.668 2°53.656 -999 345 1.7 101970 66
2006-02-23 15:12 51°15.477 2°53.803 -999 350 1.7 102010 66
2006-02-23 15:13 51°15.312 2°53.976 -999 352 1.8 101990 66
2006-02-23 15:14 51°15.168 2°54.136 -999 351 1.8 101990 65
2006-02-23 15:15 51°15.056 2°54.287 -999 349 1.8 102000 65
2006-02-23 15:16 51°14.937 2°54.427 -999 345 1.8 102000 65
2006-02-23 15:17 51°14.839 2°54.533 -999 332 1.8 102010 64
2006-02-23 15:18 51°14.749 2°54.622 -999 334 1.8 102010 64
2006-02-23 15:19 51°14.604 2°54.764 -999 347 1.8 102000 65
2006-02-23 15:20 51°14.434 2°54.948 -999 351 1.8 102000 65
2006-02-23 15:21 51°14.304 2°55.194 -999 349 1.8 102000 66
2006-02-23 15:22 51°14.172 2°55.376 -999 344 1.8 102000 67
2006-02-23 15:23 51°14.045 2°55.471 -999 337 1.8 101990 66
2006-02-23 15:24 51°13.948 2°55.543 -999 330 1.7 101990 65
2006-02-23 15:25 51°13.853 2°55.613 -999 339 1.7 101990 65
2006-02-23 15:26 51°13.768 2°55.701 -999 340 1.7 102000 65
2006-02-23 15:27 51°13.703 2°55.807 -999 342 1.8 102000 66
2006-02-23 15:28 51°13.663 2°55.896 -999 331 1.8 102000 65
2006-02-23 15:29 51°13.638 2°55.967 -999 341 1.8 101990 66
2006-02-23 15:30 51°13.621 2°56.023 -999 334 1.8 102000 66
2006-02-23 15:31 51°13.611 2°56.06 -999 334 1.8 102010 66
2006-02-23 15:32 51°13.605 2°56.079 -999 350 1.8 102000 66